This is the latest recevied weather packets stored in our database for station/object N3DXC. If no packets are shown the sender has not sent any weather packets the latest 1 day(s).
| Time | Temp. | Humidity | Pressure | Rain* | Wind** | Luminosity | Snow |
|---|---|---|---|---|---|---|---|
| 1778028589 | 18.89° C | 53% | 1009.1 hPa | 0 mm | 2.68 m/s, 227° | - | - |
| 1778028289 | 18.89° C | 53% | 1009.2 hPa | 0 mm | 2.68 m/s, 223° | - | - |
| 1778027989 | 18.89° C | 53% | 1009.2 hPa | 0 mm | 3.13 m/s, 220° | - | - |
| 1778027689 | 18.89° C | 53% | 1009.1 hPa | 0 mm | 4.02 m/s, 220° | - | - |
| 1778027389 | 19.44° C | 53% | 1009.1 hPa | 0 mm | 2.68 m/s, 226° | - | - |
| 1778027089 | 19.44° C | 53% | 1009.1 hPa | 0 mm | 3.58 m/s, 233° | - | - |
| 1778026789 | 19.44° C | 53% | 1009 hPa | 0 mm | 2.68 m/s, 232° | - | - |
| 1778026489 | 19.44° C | 52% | 1008.9 hPa | 0 mm | 4.02 m/s, 232° | - | - |
| 1778026189 | 19.44° C | 52% | 1008.9 hPa | 0 mm | 3.58 m/s, 234° | - | - |
| 1778025889 | 19.44° C | 53% | 1008.8 hPa | 0 mm | 4.02 m/s, 217° | - | - |
| 1778025589 | 19.44° C | 53% | 1008.9 hPa | 0 mm | 4.02 m/s, 223° | - | - |
| 1778025289 | 19.44° C | 53% | 1009 hPa | 0 mm | 3.58 m/s, 227° | - | - |
| 1778024989 | 19.44° C | 53% | 1009 hPa | 0 mm | 4.02 m/s, 243° | - | - |
| 1778024689 | 19.44° C | 55% | 1008.8 hPa | 0 mm | 4.02 m/s, 255° | - | - |
| 1778024389 | 19.44° C | 55% | 1008.8 hPa | 0 mm | 3.13 m/s, 251° | - | - |
| 1778024089 | 19.44° C | 57% | 1008.8 hPa | 0 mm | 4.47 m/s, 241° | - | - |
| 1778023789 | 19.44° C | 57% | 1008.8 hPa | 0 mm | 4.02 m/s, 251° | - | - |
| 1778023489 | 19.44° C | 57% | 1008.7 hPa | 0 mm | 2.68 m/s, 243° | - | - |
| 1778023191 | 19.44° C | 58% | 1008.8 hPa | 0 mm | 4.02 m/s, 240° | - | - |
| 1778022889 | 19.44° C | 58% | 1008.8 hPa | 0 mm | 2.68 m/s, 239° | - | - |
| 1778022589 | 19.44° C | 58% | 1008.8 hPa | 0 mm | 3.58 m/s, 255° | - | - |
| 1778022289 | 19.44° C | 59% | 1008.8 hPa | 0 mm | 2.68 m/s, 254° | - | - |
| 1778021989 | 19.44° C | 58% | 1008.8 hPa | 0 mm | 2.24 m/s, 270° | - | - |
| 1778021689 | 19.44° C | 57% | 1008.8 hPa | 0 mm | 4.02 m/s, 278° | - | - |
| 1778021389 | 19.44° C | 57% | 1008.9 hPa | 0 mm | 3.58 m/s, 262° | - | - |
* Rain latest hour (hover to see other rain measurements)
** Current wind speed in m/s (hover to see current wind gust speed)